Regional Weather Roundup
Issued by NWS

Home | Current Version | Previous Version | Graphics & Text | Print | Product List | Glossary On
Versions: 1 2 3 4 5 6 7 8 9 10 11 12 13 14 15 16 17 18 19 20 21 22 23 24 25 26 27 28 29 30 31 32 33 34 35 36 37 38 39 40 41 42 43 44 45 46 47 48 49 50
000
ASUS43 KLMK 212110
RWRKY
KENTUCKY REGIONAL WEATHER ROUNDUP
NATIONAL WEATHER SERVICE LOUISVILLE KY
500 PM EDT TUE OCT 21 2014

NOTE "FAIR" INDICATES FEW OR NO CLOUDS BELOW 12,000 FEET
WITH NO SIGNIFICANT WEATHER AND/OR OBSTRUCTIONS TO VISIBILITY.

KYZ001>023-026-027-061>063-070>075-212200-
WESTERN AND SOUTH CENTRAL KENTUCKY

CITY           SKY/WX    TMP DP  RH WIND       PRES   REMARKS
PADUCAH        SUNNY     70  46  42 N9        30.06S
HENDERSON      MOSUNNY  N/A N/A N/A N10       30.08S
OWENSBORO      PTSUNNY   62  44  51 N8        30.09R
HOPKINSVILLE   SUNNY     68  45  43 N10       30.04S
BOWLING GREEN  MOSUNNY   68  42  38 NW10      30.05S
GLASGOW        MOSUNNY   64  43  45 N10       30.05S
$$

KYZ024-025-028>034-038-045-046-053-212200-
NORTH CENTRAL KENTUCKY

CITY           SKY/WX    TMP DP  RH WIND       PRES   REMARKS
LOUISVILLE/SDF CLOUDY    59  40  49 N14       30.09R
LOUISVILLE/LOU CLOUDY    58  39  49 N10       30.09R
FORT KNOX      PTSUNNY   59  41  51 NW10      30.07R
$$

KYZ035>037-039>044-047>052-055>060-089>105-212200-
NORTHEAST KENTUCKY

CITY           SKY/WX    TMP DP  RH WIND       PRES   REMARKS
LEXINGTON      CLOUDY    57  41  55 N5        30.08R
COVINGTON      CLOUDY    55  40  56 N9        30.08R
FRANKFORT      CLOUDY    56  40  55 NW10      30.08R
$$

KYZ054-064>069-076>088-106>120-212200-
SOUTHEAST KENTUCKY

CITY           SKY/WX    TMP DP  RH WIND       PRES   REMARKS
JACKSON        CLOUDY    52  39  61 VRB7      30.05R
LONDON         CLOUDY    57  40  52 N12G21    30.06R
SOMERSET       CLOUDY    55  41  58 N13       30.07R
MIDDLESBORO    CLOUDY    60  43  52 N8        30.03R
MONTICELLO     MOCLDY    62  44  51 N13G18    30.07R
$$




USA.gov is the U.S. government's official web portal to all federal, state and local government web resources and services.